Location: Centerville
(32.8776°N, 96.6203°W)
Time: 23:02:28
(UTC+00:00)

Cosmos 1674 Rocket - Pass Details

Date: 17 June 2021
Orbit: 603 x 630 km, 82.5° (Epoch: 01 August)

Event Time Altitude Azimuth Distance (km) Brightness Sun altitude
Rises 02:12:14 0° 171° (S) 2,894 6.6 -7.2°
Reaches altitude 10° 02:14:32 10° 165° (SSE) 1,988 5.7 -7.6°
Maximum altitude 02:18:44 45° 92° (E) 851 3.9 -8.3°
Drops below altitude 10° 02:22:55 10° 20° (NNE) 1,985 6.4 -9.0°
Sets 02:25:12 0° 15° (NNE) 2,890 7.3 -9.4°
